Fort Myers, FL

2:46 PM EST on February 23, 2017 (GMT -0500)
Page

Weather History for KFMY - February, 2014

Change the Weather History Date:

Thursday, February 13, 2014

  Actual Average Record
Temperature  
Mean Temperature 61 °F 66 °F  
Max Temperature 69 °F 77 °F 88 °F (1959)
Min Temperature 53 °F 56 °F 32 °F (1955)
Degree Days  
Heating Degree Days 4 2  
Month to date heating degree days 4 32  
Since 1 July heating degree days 155 233  
Cooling Degree Days 0 4  
Month to date cooling degree days 99 42  
Year to date cooling degree days 182 125  
Growing Degree Days 12 (Base 50)    
Moisture  
Dew Point 57 °F    
Average Humidity 81    
Maximum Humidity 93    
Minimum Humidity 52    
Precipitation  
Precipitation 0.53 in 0.08 in 1.89 in (1913)
Month to date precipitation 1.01 0.92  
Year to date precipitation 3.17 2.86  
Sea Level Pressure  
Sea Level Pressure 29.85 in    
Wind  
Wind Speed 14 mph (WNW)    
Max Wind Speed 28 mph    
Max Gust Speed 35 mph    
Visibility 8 miles    
Events Fog , Rain    
T = Trace of Precipitation, MM = Missing Value Source: NWS Daily Summary

Daily Weather History Graph

Daily Weather History Graph

Search for Another Location

Airport or City:

Trip Planner

Search our weather history database for the weather conditions in past years. The results will help you decide how hot, cold, wet, or windy it might be!

Date:

Astronomy

Feb. 13, 2014 Rise Set
Actual Time 7:04 AM EST 6:18 PM EST
Civil Twilight 6:41 AM EST 6:42 PM EST
Nautical Twilight 6:13 AM EST 7:09 PM EST
Astronomical Twilight 5:46 AM EST 7:36 PM EST
Moon 5:25 PM EST (2/13) 5:56 AM EST (2/13)
Length of Visible Light 12h 01m
Length of Day
11h 13m
Waxing Gibbous, 98% of the Moon is Illuminated
Feb 13
Waxing Gibbous
Feb 14
Full
Feb 22
Last Quarter
Mar 1
New
Mar 8
First Quarter

Hourly Weather History & Observations

Time (EST) Temp. Dew Point Humidity Pressure Visibility Wind Dir Wind Speed Gust Speed Precip Events Conditions
12:53 AM 64.9 °F 63.0 °F 93% 29.79 in 10.0 mi South 5.8 mph - N/A   Overcast
1:38 AM 64.9 °F 64.0 °F 97% 29.78 in 10.0 mi SSE 10.4 mph - N/A   Overcast
1:53 AM 66.0 °F 64.0 °F 93% 29.79 in 10.0 mi SSW 6.9 mph - N/A   Overcast
2:53 AM 69.1 °F 66.0 °F 90% 29.77 in 10.0 mi SSW 10.4 mph - N/A   Overcast
3:41 AM 69.1 °F 66.0 °F 90% 29.74 in 10.0 mi SSW 11.5 mph - N/A   Overcast
3:53 AM 69.1 °F 66.9 °F 93% 29.74 in 7.0 mi SSW 12.7 mph - 0.00 in Rain Light Rain
4:01 AM 69.1 °F 66.9 °F 93% 29.76 in 2.5 mi West 18.4 mph 23.0 mph 0.05 in Rain Rain
4:05 AM 68.0 °F 66.0 °F 93% 29.76 in 1.0 mi West 19.6 mph 24.2 mph 0.07 in Rain Heavy Rain
4:12 AM 66.9 °F 64.9 °F 93% 29.76 in 0.5 mi West 13.8 mph 26.5 mph 0.46 in Fog , Rain Heavy Rain
4:19 AM 66.9 °F 64.9 °F 93% 29.76 in 2.0 mi West 12.7 mph - 0.52 in Rain Light Rain
4:21 AM 66.9 °F 64.9 °F 93% 29.76 in 6.0 mi WNW 11.5 mph - 0.52 in Rain Light Rain
4:53 AM 66.9 °F 64.0 °F 90% 29.77 in 9.0 mi WNW 9.2 mph - 0.52 in   Overcast
5:44 AM 64.0 °F 62.1 °F 93% 29.80 in 2.5 mi WNW 17.3 mph - N/A   Overcast
5:53 AM 63.0 °F 61.0 °F 93% 29.81 in 3.0 mi WNW 18.4 mph 26.5 mph N/A   Overcast
5:56 AM 63.0 °F 61.0 °F 93% 29.81 in 2.5 mi WNW 18.4 mph - N/A   Overcast
5:58 AM 63.0 °F 61.0 °F 93% 29.81 in 3.0 mi WNW 18.4 mph - N/A   Overcast
6:03 AM 63.0 °F 61.0 °F 93% 29.81 in 3.0 mi WNW 18.4 mph 26.5 mph N/A   Overcast
6:14 AM 63.0 °F 61.0 °F 93% 29.82 in 4.0 mi WNW 15.0 mph 24.2 mph N/A   Overcast
6:18 AM 63.0 °F 61.0 °F 93% 29.82 in 3.0 mi WNW 20.7 mph 26.5 mph 0.00 in Rain Light Rain
6:26 AM 62.1 °F 60.1 °F 93% 29.83 in 3.0 mi NW 16.1 mph 26.5 mph 0.01 in Rain Light Rain
6:42 AM 62.1 °F 59.0 °F 90% 29.84 in 10.0 mi WNW 18.4 mph 24.2 mph 0.01 in   Overcast
6:47 AM 62.6 °F 59.0 °F 88% 29.84 in 10.0 mi WNW 16.1 mph 23.0 mph 0.01 in   Overcast
6:53 AM 62.1 °F 59.0 °F 90% 29.85 in 10.0 mi WNW 13.8 mph - 0.01 in   Overcast
7:06 AM 63.0 °F 57.0 °F 81% 29.84 in 10.0 mi WNW 16.1 mph 24.2 mph N/A   Overcast
7:53 AM 64.0 °F 55.0 °F 73% 29.86 in 10.0 mi WNW 12.7 mph - N/A   Overcast
8:53 AM 64.9 °F 55.9 °F 73% 29.88 in 10.0 mi WNW 12.7 mph - N/A   Overcast
9:53 AM 66.9 °F 55.9 °F 68% 29.89 in 10.0 mi WNW 18.4 mph 28.8 mph N/A   Mostly Cloudy
10:53 AM 66.9 °F 54.0 °F 63% 29.90 in 10.0 mi WNW 19.6 mph 29.9 mph N/A   Scattered Clouds
11:53 AM 68.0 °F 54.0 °F 61% 29.89 in 10.0 mi WNW 20.7 mph 29.9 mph N/A   Scattered Clouds
12:53 PM 68.0 °F 53.1 °F 59% 29.88 in 10.0 mi NW 18.4 mph 26.5 mph N/A   Mostly Cloudy
1:53 PM 66.9 °F 51.1 °F 57% 29.87 in 10.0 mi NNW 23.0 mph 28.8 mph N/A   Scattered Clouds
2:53 PM 66.9 °F 48.9 °F 52% 29.87 in 10.0 mi NW 19.6 mph 33.4 mph N/A   Partly Cloudy
3:53 PM 64.9 °F 48.0 °F 54% 29.88 in 10.0 mi NW 19.6 mph 28.8 mph N/A   Scattered Clouds
4:53 PM 64.9 °F 48.0 °F 54% 29.89 in 10.0 mi WNW 17.3 mph 27.6 mph N/A   Scattered Clouds
5:53 PM 62.1 °F 48.0 °F 60% 29.91 in 10.0 mi NW 16.1 mph 23.0 mph N/A   Scattered Clouds
6:53 PM 59.0 °F 48.9 °F 69% 29.94 in 10.0 mi NW 12.7 mph - N/A   Clear
7:53 PM 57.9 °F 48.9 °F 72% 29.96 in 10.0 mi NNW 12.7 mph - N/A   Clear
8:31 PM 57.0 °F 48.9 °F 74% 29.97 in 10.0 mi North 9.2 mph - N/A   Mostly Cloudy
8:53 PM 57.0 °F 48.0 °F 72% 29.99 in 10.0 mi NNW 9.2 mph - N/A   Mostly Cloudy
9:00 PM 55.9 °F 48.9 °F 77% 29.98 in 10.0 mi NNW 6.9 mph - N/A   Scattered Clouds
9:53 PM 55.9 °F 48.0 °F 75% 30.00 in 10.0 mi North 6.9 mph - N/A   Scattered Clouds
10:53 PM 54.0 °F 48.0 °F 80% 30.00 in 10.0 mi North 4.6 mph - N/A   Clear
11:53 PM 54.0 °F 48.0 °F 80% 30.01 in 10.0 mi North 4.6 mph - N/A   Clear